Location: Iesi
(43.5167°N, 13.2333°E)
Time: 15:15:36
(UTC+00:00)

Cosmos 220 Rocket - Pass Details

Date: 08 August 2020
Orbit: 575 x 617 km, 74.0° (Epoch: 22 September)

Event Time Altitude Azimuth Distance (km) Brightness Sun altitude
Rises 19:26:41 0° 342° (NNW) 2,795 8.4 -11.4°
Reaches altitude 10° 19:28:55 10° 346° (NNW) 1,893 7.3 -11.7°
Maximum altitude 19:33:06 64° 68° (ENE) 643 4.0 -12.3°
Enters shadow 19:36:08 18° 147° (SSE) 1,439 5.4 -12.8°
